ONEWEB-0325 (49194 NORAD) Tracking and Keplerian Element Data

This shows tracking and keplerian element data for the satellite.

Feedback or suggestion? Click here.




ElementValue
Catalog49194
NameONEWEB-0325
Epoch Orbit775
Epoch Day300.83334491
Epoch Year2021
RAAN314.0281
Inclination87.5886
Eccentricity0.0020163
Argument of Perigee144.2498
Mean Anonmoly183.2679
Mean Motion14.5237039
Decay Rate-0.01342369
L11 49194U 21083J 21300.83334491 -.01342369 00000-0 -35546+0 0 9994
L22 49194 87.5886 314.0281 0020163 144.2498 183.2679 14.52370390 7753

Live tracking and technical data element details for ONEWEB-0325 (NORAD 49194). ONEWEB-0325 can be tracked NOW for your location showing map with azimuth and elevation plus other details from your city location.

Track the satellite on the map from your city or location and see movement details for azimuth, elevation, latitude, longitude, range, height, and movement on the map or in text.







IsCatalogInMostPopularTable: catalog: 49194, numindb: 10
Update: records affected: 1



GetName: 49194 ONEWEB-0325

Hit Count: updated at: Thu, 28 Oct 2021 12:02:36 GMT